www.pogodaiklimat.ru

Погода и климат >> Архив погоды >> Канада >> Windsor


ПОГОДА в Windsor

  • Прогноз погоды в Windsor
  • Монитор погоды в Windsor
  • Климат города

АРХИВ ПОГОДЫ в Windsor

Время (UTC), дата Ветер
(напр.,м/с)
 
Видим.   Явления Облачность Т
(С)
Тd
(С)
f
(%)
Тe
(С)
Тes
(С)
Комфортность P
(гПа)
Po
(гПа)
Тmin
(С)
Tmax
(С)
R
(мм)
R24
(мм)
S
(см)
03 16.07 Ю 2 24 км 6/6 1500 м
[]
+25.3 +21.2 78 +32 +32 очень
душно
1014.1 991.9
06 16.07 Ю 3 16 км ясно +23.6 +21.8 90 +30 +30 очень
душно
1013.5 991.4 +22.6 +32.7 21
09 16.07 Ю 3 19 км 1/0
[]
+23.4 +21.0 86 +31 +31 очень
душно
1012.9 990.8
12 16.07 ЮЗ 4 12 км 8/0
[Ac trans Cc]
+24.5 +21.6 84 +31 +32 очень
душно
1013.2 991.1 +22.5 +32.7
15 16.07 ЮЗ 4 19 км 5/5 600 м
[]
+29.3 +23.1 69 +39 +44 очень
душно
1013.1 991.0
18 16.07 ЮЗ 5 19 км 9/6 1000 м
[Cu med, cong Ac cuf Cs]
+31.1 +22.6 61 +41 +43 опасность
перегрева
1011.5 989.4 +22.5 +31.2
21 16.07 Ю 6 19 км 9/0
[]
+28.9 +21.7 65 +37 +39 очень
душно
1010.3 988.2
00 17.07 ЮВ 2 19 км 8/3 1500 м
[Cu med, cong Ac cuf Ci ing]
+25.7 +20.2 72 +32 +32 очень
душно
1010.2 988.1 +22.5 +31.8
03 17.07 З 3 19 км 5/5 1500 м
[]
+24.9 +20.1 75 +31 +31 очень
душно
1011.2 989.1
06 17.07 СЗ 6 19 км ясно +23.4 +17.2 68 +29 +29 душно 1011.3 989.2 +22.5 +31.8 50
09 17.07 С 3 19 км ясно +20.1 +14.8 72 +23 +23 комфорт 1012.4 990.2
12 17.07 С 3 24 км ясно +21.4 +13.9 62 +24 +26 комфорт 1014.5 992.2 +18.9 +31.8
15 17.07 С 4 24 км ясно +25.9 +12.5 43 +27 +38 жарко 1014.9 992.7
18 17.07 СЗ 7 24 км 6/6 2000 м
[Cu hum Ci sp]
+27.9 +11.0 35 +29 +31 жарко 1014.5 992.3 +18.9 +28.3
21 17.07 С 7 24 км 5/5 1500 м
[]
+26.8 +10.6 36 +28 +29 жарко 1014.8 992.5
00 18.07 С 5 24 км 4/0 2000 м
[Ac cuf]
+25.6 +10.4 38 +26 +27 жарко 1015.0 992.7 +18.9 +28.8
03 18.07 СВ 5 24 км ясно +19.8 +13.8 68 +22 +22 комфорт 1017.2 994.8
06 18.07 СВ 2 19 км ясно +17.0 +14.1 83 +17 +17 1018.2 995.8 +16.8 +28.8 181
09 18.07 С 3 24 км 1/0
[]
+16.3 +13.9 86 +16 +16 1018.2 995.8
12 18.07 С 4 24 км ясно +18.7 +14.1 75 +19 +21 1019.6 997.1 +15.8 +28.8
15 18.07 СВ 3 24 км 3/3 1000 м
[]
+23.4 +13.4 53 +27 +34 душно 1019.6 997.1
18 18.07 В 4 24 км 3/3 1500 м
[Cu hum]
+24.5 +11.6 44 +26 +35 жарко 1019.1 996.6 +15.8 +25.4
21 18.07 СВ 1 24 км 3/3 1500 м
[]
+25.6 +11.8 42 +27 +35 жарко 1017.7 995.2
00 19.07 Ю 5 24 км 4/4 1500 м
[Cu hum]
+23.6 +13.7 54 +26 +26 жарко 1017.2 994.8 +15.8 +26.5
03 19.07 ЮВ 1 24 км 1/1 1500 м
[]
+18.4 +13.6 74 +20 +20 1018.0 995.5
06 19.07 В 1 24 км ясно +16.2 +13.2 82 +17 +17 1018.1 995.6 +15.8 +26.5
09 19.07 ЮВ 1 24 км ясно +14.4 +12.5 88 +15 +15 1018.2 995.7
12 19.07 С 1 24 км 6/0
[Ci]
+19.5 +14.9 75 +23 +25 комфорт 1018.6 996.1 +14.2 +26.5
15 19.07 ЮВ 4 24 км 8/8 1500 м
[]
+25.2 +14.3 51 +28 +29 жарко 1018.5 996.1
18 19.07 Ю 6 24 км 8/4 1000 м
[Cu hum Ci sp]
+26.6 +12.3 41 +28 +32 жарко 1017.5 995.1 +14.2 +27.5
21 19.07 ЮВ 4 24 км 10/0
[]
+27.5 +12.2 39 +29 +32 жарко 1016.5 994.1
00 20.07 ЮВ 4 24 км 1/0
[Ci fib]
+25.5 +14.8 52 +28 +29 жарко 1015.0 992.7 +14.2 +28.0
03 20.07 В 3 24 км ясно +19.5 +15.1 76 +22 +22 комфорт 1014.7 992.4
06 20.07 В 3 24 км ясно +18.9 +16.8 88 +21 +21 комфорт 1013.6 991.3 +14.2 +28.0 18
09 20.07 ЮВ 2 24 км ясно +16.9 +16.2 96 +17 +17 1012.5 990.2
12 20.07 ЮВ 3 24 км 9/0
[Ac und Ci sp]
+21.9 +18.9 83 +27 +28 душно 1011.8 989.6 +16.4 +28.0
15 20.07 ЮЗ 6 19 км 9/0
[]
+27.2 +20.5 67 +34 +37 очень
душно
1011.3 989.1
18 20.07 ЮЗ 5 11 км слабый ливневой дождь, в посл. час гроза 10/8 1000 м
[Cu hum Ac cuf]
+22.2 +19.7 86 +28 +29 душно 1011.6 989.3 +16.4 +27.8 2
21 20.07 Ю 7 24 км 9/9 300 м
[]
+24.9 +19.7 73 +30 +31 душно 1008.7 986.4
00 21.07 Ю 5 24 км {ливн. осадки} 9/3 600 м
[Cu med, cong Ac cast Ci fib]
+24.2 +18.5 70 +29 +29 душно 1008.4 986.2 +16.4 +27.8 4
03 21.07 Ю 4 24 км 10/10 1000 м
[]
+22.4 +18.0 76 +27 +27 душно 1008.2 986.1
06 21.07 Ю 4 24 км {дождь} 9/8 600 м
[Cu hum Ac As]
+21.7 +17.6 78 +26 +26 душно 1007.7 985.5 +16.4 +27.8 0.0 231
09 21.07 ЮВ 4 24 км 10/10 600 м
[]
+21.0 +18.2 84 +25 +25 комфорт 1006.6 984.5
12 21.07 ЮВ 3 9000 м слабая морось 10/10 300 м
[Frnb]
+20.2 +19.1 93 +24 +24 комфорт 1007.4 985.2 +20.0 +27.8 0.0
15 21.07 ЮВ 4 6000 м 9/9 100 м
[]
+20.3 +19.5 95 +24 +25 комфорт 1008.0 985.8
18 21.07 ЮВ 4 19 км в посл. час дождь {ливн. осадки} 10/10 300 м
[Sc]
+21.1 +19.4 90 +26 +26 душно 1008.1 985.9 +20.0 +21.6 1
21 21.07 В 4 19 км 10/10 300 м
[]
+21.6 +18.9 85 +26 +26 душно 1008.0 985.8
00 22.07 В 4 19 км 9/0 2000 м
[Ac As Ci sp]
+22.4 +19.2 82 +28 +28 душно 1008.0 985.8 +20.0 +23.0
03 22.07 СВ 4 19 км 9/9 1000 м
[]
+21.7 +20.4 92 +27 +27 душно 1008.4 986.2
06 22.07 В 3 24 км 6/0
[Ac trans]
+20.6 +19.0 91 +25 +25 комфорт 1008.0 985.8 +20.0 +23.0
09 22.07 В 3 24 км 9/0
[]
+20.4 +18.0 86 +24 +24 комфорт 1007.6 985.4
12 22.07 СВ 6 24 км в посл. час ливневой дождь 10/9 300 м
[Sc Ac As]
+20.0 +18.3 90 +23 +23 комфорт 1008.6 986.4 +20.0 +23.0 0.4
15 22.07 СВ 6 9000 м 10/10 600 м
[]
+17.8 +16.6 93 +17 +17 1009.8 987.5
18 22.07 С 3 16 км слабый дождь 10/3 300 м
[Cu hum As op]
+19.2 +17.0 87 +21 +23 комфорт 1010.0 987.7 +17.3 +20.9 2
21 22.07 С 5 19 км 10/10 1000 м
[]
+19.5 +16.7 84 +21 +21 комфорт 1010.0 987.7
00 23.07 С 4 19 км {дождь} 9/9 600 м
[Sc]
+18.6 +14.2 76 +19 +19 1010.6 988.2 +17.3 +20.1 1

 

Местоположение метеостанции Windsor (Канада): широта 42.27 долгота -82.96 высота над уровнем моря 190 м.

В архиве по умолчанию представлена погода в Windsor за последнюю неделю. Архивные данные за месяц целиком и за предыдущие месяцы, начиная с января 2011 года, Вы можете получить, выбрав интересующий диапазон дат из раскрывающегося списка и нажав кнопку "Ввод!".


*Определитесь, кто Вы:
робот инопланетянин человек

Внимание! Время в таблицах - всемирное. Для получения местного времени необходимо прибавить поправку, которая в Windsor равна -5 ч.

Смотрите также архив погоды в соседних городах и на ближайших метеорологических станциях:

Погода в Harrow On (Канада) (27 км)
Погода в Point Pelee (Канада) (51 км)
Погода в Southeast Shoal (Канада) (64 км)
Погода в Erieau (Канада) (87 км)
Погода в Ridgetown Rcs (Канада) (91 км)
Погода в Sarnia Airport (Канада) (97 км)
Погода в Sarnia Climate (Канада) (98 км)
Погода в London Cs (Канада) (170 км)
Погода в London (Канада) (170 км)
Погода в Goderich (Канада) (195 км)

Пояснения к столбцам:

Ветер - указаны скорость ветра в м/с - средняя за 10 мин, порывы в срок и между сроками (в фигурных скобках) и направление, откуда дует ветер: С - северный, СВ - северо-восточный, В - восточный, ЮВ - юго-восточный, Ю - южный, ЮЗ - юго-западный, З - западный, СЗ - северо-западный.
Видимость - горизонтальная дальность видимости в метрах или километрах. При видимости от 1 до 10 км при отсутствии осадков обычно наблюдается дымка, при ухудшении видимости до 1 км и менее - туман. В сухую погоду видимость может ухудшаться дымом, пылью или мглою.
Явления - указаны атмосферные явления, наблюдавшиеся в срок или в последний час перед сроком; фигурными скобками обозначены явления, наблюдавшиеся между сроками (за 1-3 часа до срока); квадратными скобками обозначены град или гололедные отложения с указанием их диаметра в мм.
Облачность - указаны через наклонную черту общая и нижняя облачность в баллах и высота нижней границы облаков в метрах; квадратными скобками обозначены формы облаков: Ci - перистые, Cs - перисто-слоистые, Cc - перисто-кучевые, Ac - высококучевые, As - высокослоистые, Sc - слоисто-кучевые, Ns - слоисто-дождевые, Cu - кучевые, Cb - кучево-дождевые. Подробнее классификацию облаков см. в Атласе облаков (PDF).
T - Температура воздуха - температура, измеренная на высоте 2 м над землей.
Td - Температура точки росы - температура, при понижении до которой содержащийся в воздухе водяной пар достигнет насыщения.
f - Относительная влажность воздуха - влажноcть воздуха, измеренная на высоте 2 м над землей.
Te - Эффективная температура - температура, которую ощущает одетый по сезону человек в тени. Характеристика душности погоды. При расчете учитывается влияние влажности воздуха и скорости ветра на теплоощущения человека.
Tes - Эффективная температура на солнце - температура, которую ощущает человек, с поправкой на солнечный нагрев. Характеристика знойности погоды. Зависит от высоты солнца над горизонтом, облачности и скорости ветра. Ночью, в пасмурную погоду, а также при ветре 12 м/с и более поправка равна нулю.
P - Атмосферное давление - приведенное к уровню моря атмосферное давление.
Po - Атмосферное давление - измеренное на уровне метеостанции атмосферное давление.
Tmin - Минимальная температура - минимум температуры воздуха на высоте 2 м над землей.
Tmax - Максимальная температура - максимум температуры воздуха на высоте 2 м над землей.
R - Количество осадков - Количество выпавших осадков за период времени, мм. При наведении курсора мыши на число - период времени, за который выпало указанное количество осадков.
R24 - Количество осадков - Количество выпавших осадков за 24 часа, мм.
S - Снежный покров - Высота снежного покрова, см. При наведении курсора мыши на число - состояние снежного покрова и степень покрытия местности в баллах.